Regional Weather Roundup
Issued by NWS

Home | Current Version | Previous Version | Text Only | Print | Product List | Glossary Off
Versions: 1 2 3 4 5 6 7 8 9 10 11 12 13 14 15 16 17 18 19 20 21 22 23 24 25 26 27 28 29 30 31 32 33 34 35 36 37 38 39 40 41 42 43 44 45 46 47 48 49 50

687
ASUS43 KMKX 261520
RWRWI

WISCONSIN REGIONAL WEATHER ROUNDUP
NATIONAL WEATHER SERVICE MILWAUKEE/SULLIVAN WI
1000 AM CDT THU APR 26 2018

NOTE: "FAIR" INDICATES FEW OR NO CLOUDS BELOW 12,000 FEET WITH NO
SIGNIFICANT WEATHER AND/OR OBSTRUCTIONS TO VISIBILITY.

WIZ001-002-006>008-014>016-023>028-261600-
NORTHWEST WISCONSIN

CITY           SKY/WX    TMP DP  RH WIND       PRES   REMARKS
SUPERIOR ARPT  FAIR      51  33  50 W10       29.81R
ASHLAND        FAIR      57  33  40 W13       29.79F
HAYWARD        FAIR      55  32  41 SW9       29.81F
SIREN          FAIR      55  31  39 W9G17     29.82F
CUMBERLAND     FAIR      54  34  47 SW12      29.83F
RICE LAKE      FAIR      54  33  44 SW10      29.86S
CHETEK         FAIR      56  33  41 SW8       29.84F
LADYSMITH      FAIR      55  34  45 SW10G16   29.85F
EAU CLAIRE     FAIR      56  34  43 SW10      29.87F
MENOMONIE      FAIR      56  33  40 SW9       29.86F
NEW RICHMOND   FAIR      56  31  39 SW12      29.84S
OSCEOLA        FAIR      58  33  39 SW14      29.86F
$$

WIZ003>005-009-010-017-018-261600-
NORTH CENTRAL WISCONSIN

CITY           SKY/WX    TMP DP  RH WIND       PRES   REMARKS
MANITOWISH WTR FAIR      49  32  50 SW6       29.81F
ARBOR VITAE    FAIR      52  33  47 SW9       29.82F
WOODRUFF       FAIR      52  33  47 SW9       29.82F
RHINELANDER    FAIR      51  32  48 W14       29.85F
EAGLE RIVER    FAIR      51  29  43 W13       29.82F
LAND O LAKES   FAIR      50  28  42 SW8       29.83F
PHILLIPS       FAIR      51  33  48 SW10      29.82F
TOMAHAWK       FAIR      51  31  45 SW5       29.86F
MEDFORD        FAIR      50  34  54 SW10      29.87S
MERRILL        FAIR      53  32  46 W9        29.87F
$$

WIZ029-030-035-036-043>047-261600-
CENTRAL WISCONSIN

CITY           SKY/WX    TMP DP  RH WIND       PRES   REMARKS
WAUSAU         FAIR      53  31  42 SW9       29.86F
MOSINEE        MOSUNNY   52  30  43 SW8       29.89F
MARSHFIELD     FAIR      53  33  46 W13       29.87F
STEVENS POINT  FAIR      51  30  44 SW6       29.89F
WAUPACA        FAIR      57  32  38 SW7       29.90S
WAUTOMA        FAIR      52  34  50 SW7       29.91F
WISC RAPIDS    FAIR      53  31  42 VRB5      29.90F
CAMP DOUGLAS   PTSUNNY   55  30  38 SW9       29.90F
$$

WIZ011>013-019>022-031-037>040-048>050-261600-
NORTHEAST WISCONSIN

CITY           SKY/WX    TMP DP  RH WIND       PRES   REMARKS
ANTIGO         FAIR      51  32  48 W10       29.86F
SHAWANO        FAIR      54  33  44 SW6       29.88F
OCONTO         FAIR      54  33  45 SW8       29.88F
STURGEON BAY   FAIR      51  33  50 SW10      29.89F
GREEN BAY      FAIR      50  38  63 SW8       29.90S
MANITOWOC      FAIR      54  35  48 SW7       29.91F
APPLETON       MOSUNNY   50  34  53 SW10      29.89F
CLINTONVILLE   FAIR      52  31  44 SW7       29.89S
OSHKOSH        FAIR      52  37  56 SW9       29.90F
$$

WIZ032>034-041-042-053>061-261600-
SOUTHWEST WISCONSIN

CITY           SKY/WX    TMP DP  RH WIND       PRES   REMARKS
LA CROSSE      FAIR      54  37  52 S6        29.91F
SPARTA         FAIR      54  33  45 W9        29.91F
VIROQUA        FAIR      55  37  50 W12       29.92S
BOSCOBEL       FAIR      53  36  52 VRB5      29.94S
PRAIRIE DU CHI FAIR      53  32  46 CALM      29.93S
PLATTEVILLE    FAIR      52  37  57 SW8       29.94F
$$

WIZ056-057-062-063-064-067-068-261600-
SOUTH CENTRAL WISCONSIN

CITY           SKY/WX    TMP DP  RH WIND       PRES   REMARKS
REEDSBURG      FAIR      52  34  50 W3        29.92S
BARABOO/DELLS  FAIR      51  32  48 SW6       29.92S
LONE ROCK      FAIR      51  37  58 CALM      29.94S
MINERAL POINT  FAIR      52  39  62 CALM      29.93F
MADISON        CLOUDY    51  33  50 VRB5      29.92F
MIDDLETON      FAIR      55  33  44 SW6       29.93S
WATERTOWN      FAIR      51  35  53 S8        29.92F
MONROE         FAIR      52  32  46 SW9       29.94S
JANESVILLE     MOSUNNY   54  30  40 SW9       29.94F
$$

WIZ051-052-058>065-066-070>072-261600-
SOUTHEAST WISCONSIN

CITY           SKY/WX    TMP DP  RH WIND       PRES   REMARKS
MILWAUKEE      PTSUNNY   56  29  35 SW8       29.94F
WAUKESHA       SUNNY     54  32  43 SW8       29.94F
MILWAUKEE/TIMM SUNNY     54  28  37 W7        29.94F
RACINE         FAIR      53  31  42 SW7       29.96F
BURLINGTON     FAIR      56  31  39 SW7       29.94S
KENOSHA        FAIR      54  33  45 S6        29.95F
FOND DU LAC    FAIR      50  36  58 S10       29.91F
SHEBOYGAN      FAIR      55  36  48 W7        29.91F
WEST BEND      FAIR      54  32  43 SW8       29.92F
JUNEAU         FAIR      48  35  60 S7        29.93F
$$

LSZ147-162-261600-
LAKE SUPERIOR

STATION/POSITION TIME  TEMP    WIND        PRES    WAVE
                       AIR SEA DIR/SP/G            HT/PER
                 (UTC) (F)     (DEG/KT/KT) (MB)    (FT/S)
DEVILS ISLAND    1500   41     240/ 12/ 15 1009.1F
SAXON HARBOR     1430   55     210/  9/ 13 1008.1F
$$

LMZ867-665-643>646-261600-
LAKE MICHIGAN

STATION/POSITION TIME  TEMP    WIND        PRES    WAVE
                       AIR SEA DIR/SP/G            HT/PER
                 (UTC) (F)     (DEG/KT/KT) (MB)    (FT/S)
NORTHPORT PIER   1440   48                 1011.9F
KEWAUNEE LAKESHO 1454   42     160/  9/ 10 1011.8F
SHEBOYGAN LAKESH 1500   44     180/ 11/ 12 1013.1F
PORT WASHINGTON  1430   43     170/  4/  7 1014.6F
MILWAUKEE LAKESH 1500   42     130/  6/  6   N/A
KENOSHA   LAKESH 1500   45                 1014.2
$$

TC  - TEMPERATURE IN CELSIUS
VSB - VISIBILITY IN STATUTE MILES
WCI - WIND CHILL INDEX
HX  - HEAT INDEX





USA.gov is the U.S. government's official web portal to all federal, state and local government web resources and services.